Location: *
(55.5817°S, 142.4781°W)
Time: 05:25:57
(UTC+00:00)

Aureole 3 - Pass Details

Date: 29 April 2025
Orbit: 374 x 1066 km, 82.5° (Epoch: 23 May)

Event Time Altitude Azimuth Distance (km) Brightness Sun altitude
Rises 14:32:39 0° 194° (SSW) 3,816 7.5 -19.7°
Reaches altitude 10° 14:35:24 10° 195° (SSW) 2,798 6.8 -19.4°
Maximum altitude 14:41:51 72° 277° (W) 952 4.2 -18.5°
Drops below altitude 10° 14:47:14 10° 360° (N) 2,348 6.5 -17.7°
Sets 14:49:22 0° 1° (N) 3,166 7.2 -17.4°
